Location: Poughquag
(41.6090°N, 73.6820°W)
Time: 08:36:22
(UTC-05:00)

Vanguard 1 - Pass Details

Date: 06 December 2023
Orbit: 653 x 3826 km, 34.3° (Epoch: 25 February)

Event Time Altitude Azimuth Distance (km) Brightness Sun altitude
Rises 16:31:26 0° 224° (SW) 5,012 15.5 -2.0°
Reaches altitude 10° 16:34:19 10° 218° (SW) 4,364 14.7 -2.4°
Maximum altitude 16:46:34 48° 148° (SSE) 3,433 12.8 -4.5°
Drops below altitude 10° 17:06:22 10° 83° (E) 6,813 13.7 -7.8°
Enters shadow 17:08:27 - 82° (E) 7,223 13.8 -8.2°
Sets 17:12:17 0° 79° (E) 7,959 - -8.9°
